Total_Precipitation_Accumulation
1.93 1.90 1.44 0.87 0.67 0.53 0.48 0.52 0.46 0.41 0.39 0.52 0.57 0.55 0.56 0.53 0.51 0.53 0.55 0.56 0.66 0.79 0.91 1.08 1.25 1.55 1.78 2.05 2.33 2.40 2.64 2.84 3.01 3.10 3.05 2.87 2.66 2.52 2.43 2.38 2.29 2.11 1.92 1.80
1.83 1.41 0.78 0.60 0.63 0.62 0.60 0.62 0.51 0.44 0.39 0.47 0.51 0.49 0.53 0.58 0.55 0.48 0.46 0.48 0.53 0.66 0.76 0.87 1.03 1.29 1.48 1.66 1.85 2.00 2.19 2.43 2.64 2.78 2.76 2.79 2.83 2.67 2.46 2.40 2.36 2.30 2.19 2.04
1.31 0.84 0.58 0.65 0.75 0.81 0.71 0.64 0.54 0.49 0.43 0.48 0.50 0.52 0.50 0.52 0.53 0.50 0.47 0.47 0.52 0.64 0.66 0.72 0.83 1.06 1.21 1.34 1.53 1.68 1.84 2.00 2.12 2.49 2.75 2.77 2.85 2.77 2.48 2.23 2.08 2.17 2.25 2.24
1.11 0.66 0.66 0.79 0.75 0.77 0.81 0.51 0.49 0.51 0.68 0.72 0.51 0.65 0.49 0.45 0.47 0.51 0.51 0.52 0.59 0.65 0.68 0.72 0.77 0.92 0.99 1.06 1.26 1.47 1.65 1.80 1.84 2.10 2.39 2.42 2.31 2.26 2.16 2.09 2.12 2.16 2.20 2.25
1.16 0.74 0.75 0.88 0.65 0.64 0.67 0.50 0.56 0.62 0.74 0.77 0.49 0.57 0.53 0.44 0.52 0.55 0.54 0.57 0.62 0.61 0.63 0.71 0.73 0.78 0.85 0.88 0.97 1.18 1.47 1.62 1.68 1.75 1.95 2.17 2.22 2.17 2.19 2.19 2.18 2.12 2.04 2.08
0.86 0.75 0.83 0.76 0.57 0.63 0.68 0.79 0.89 0.90 1.12 1.13 0.47 0.48 0.52 0.49 0.56 0.54 0.49 0.54 0.56 0.56 0.60 0.65 0.63 0.65 0.76 0.75 0.76 0.91 1.11 1.41 1.57 1.63 1.72 1.86 1.94 1.92 1.96 2.05 2.10 2.12 2.02 1.92
1.06 0.86 0.78 0.78 0.93 0.93 1.07 1.56 1.98 1.84 1.63 0.85 0.28 0.37 0.52 0.48 0.48 0.52 0.49 0.47 0.50 0.55 0.56 0.61 0.64 0.69 0.72 0.70 0.66 0.71 0.84 1.09 1.32 1.40 1.43 1.53 1.68 1.74 1.73 1.77 1.91 1.96 1.92 1.81
1.14 1.01 0.71 0.80 1.08 1.15 1.04 1.31 1.54 1.23 0.79 0.40 0.25 0.36 0.45 0.40 0.41 0.40 0.36 0.35 0.42 0.49 0.48 0.52 0.56 0.59 0.58 0.58 0.61 0.65 0.74 0.84 0.96 1.06 1.14 1.25 1.37 1.47 1.46 1.46 1.59 1.68 1.67 1.66
0.93 0.79 0.49 0.57 0.71 0.86 1.02 1.03 0.87 1.07 0.72 0.47 0.32 0.33 0.36 0.30 0.30 0.31 0.30 0.32 0.36 0.38 0.37 0.40 0.44 0.45 0.42 0.44 0.51 0.57 0.60 0.67 0.76 0.83 0.90 1.02 1.09 1.21 1.30 1.33 1.39 1.51 1.52 1.49
0.89 0.94 0.55 0.60 0.85 0.94 0.95 0.89 1.04 1.58 1.22 0.68 0.34 0.30 0.37 0.32 0.30 0.32 0.31 0.30 0.29 0.28 0.30 0.33 0.38 0.39 0.37 0.36 0.37 0.40 0.48 0.62 0.69 0.69 0.76 0.85 0.93 0.99 1.08 1.17 1.23 1.28 1.26 1.25
0.80 1.12 0.81 0.79 1.04 0.99 0.98 1.17 1.25 1.29 1.02 0.89 0.59 0.45 0.37 0.31 0.29 0.30 0.31 0.27 0.25 0.24 0.27 0.28 0.30 0.33 0.37 0.34 0.32 0.32 0.39 0.51 0.59 0.61 0.66 0.71 0.77 0.83 0.88 0.93 0.98 1.03 1.05 1.06
0.78 1.27 1.02 0.69 0.60 0.66 0.83 0.94 1.13 1.50 1.12 0.84 0.72 0.53 0.32 0.25 0.25 0.26 0.27 0.27 0.26 0.26 0.28 0.26 0.25 0.26 0.33 0.34 0.33 0.32 0.36 0.44 0.52 0.56 0.61 0.67 0.69 0.71 0.77 0.83 0.83 0.83 0.86 0.89
1.01 1.51 1.40 1.00 0.87 0.87 0.99 0.87 0.90 1.24 1.52 1.19 0.94 0.57 0.30 0.22 0.21 0.22 0.23 0.26 0.28 0.29 0.29 0.28 0.25 0.24 0.28 0.32 0.33 0.32 0.35 0.41 0.46 0.53 0.56 0.61 0.64 0.65 0.68 0.72 0.75 0.77 0.81 0.87
1.26 1.51 1.27 1.06 0.98 1.01 0.96 0.77 0.87 1.56 1.93 1.12 0.62 0.39 0.25 0.24 0.28 0.27 0.25 0.26 0.30 0.32 0.31 0.31 0.34 0.29 0.28 0.29 0.29 0.28 0.31 0.36 0.40 0.47 0.51 0.54 0.61 0.64 0.64 0.65 0.66 0.70 0.74 0.80
1.08 1.41 0.95 0.61 0.48 0.67 0.71 0.69 0.81 1.17 1.18 1.10 0.61 0.36 0.30 0.30 0.35 0.32 0.28 0.26 0.26 0.28 0.29 0.29 0.31 0.33 0.31 0.29 0.28 0.26 0.27 0.30 0.34 0.41 0.46 0.49 0.55 0.60 0.64 0.64 0.66 0.68 0.70 0.75
0.88 1.15 0.94 0.67 0.41 0.51 0.60 0.57 0.60 0.69 0.74 0.74 0.54 0.48 0.37 0.33 0.31 0.30 0.27 0.25 0.25 0.25 0.27 0.27 0.25 0.28 0.28 0.30 0.31 0.30 0.29 0.28 0.32 0.36 0.40 0.44 0.48 0.52 0.58 0.64 0.65 0.66 0.70 0.75
0.78 1.02 1.19 0.85 0.48 0.60 0.74 0.64 0.62 0.63 0.62 0.63 0.66 0.57 0.43 0.39 0.35 0.32 0.29 0.25 0.24 0.21 0.20 0.22 0.22 0.24 0.24 0.25 0.28 0.29 0.29 0.28 0.30 0.34 0.36 0.41 0.46 0.51 0.54 0.62 0.69 0.75 0.80 0.87
0.53 0.88 1.32 0.98 0.69 0.87 0.68 0.50 0.51 0.55 0.57 0.59 0.56 0.47 0.41 0.38 0.35 0.34 0.30 0.24 0.21 0.19 0.17 0.15 0.17 0.17 0.17 0.19 0.21 0.26 0.27 0.28 0.29 0.34 0.40 0.44 0.48 0.57 0.64 0.66 0.74 0.84 0.91 0.98
0.31 0.74 1.27 1.13 0.86 0.59 0.39 0.36 0.47 0.55 0.60 0.55 0.43 0.34 0.31 0.31 0.32 0.33 0.28 0.22 0.19 0.18 0.20 0.18 0.16 0.17 0.17 0.18 0.21 0.27 0.31 0.32 0.31 0.34 0.41 0.47 0.50 0.62 0.71 0.71 0.76 0.85 0.91 0.97
0.29 0.61 1.23 1.18 1.01 0.57 0.39 0.24 0.26 0.43 0.66 0.47 0.38 0.35 0.34 0.35 0.42 0.36 0.27 0.23 0.22 0.20 0.20 0.22 0.21 0.19 0.22 0.24 0.26 0.32 0.38 0.44 0.46 0.45 0.49 0.56 0.64 0.74 0.79 0.78 0.77 0.78 0.80 0.82
0.47 0.85 1.14 1.00 0.95 0.51 0.35 0.22 0.23 0.60 0.72 0.37 0.34 0.35 0.36 0.39 0.39 0.32 0.24 0.21 0.23 0.25 0.24 0.24 0.25 0.26 0.30 0.31 0.33 0.36 0.41 0.53 0.59 0.60 0.62 0.65 0.71 0.75 0.76 0.74 0.71 0.68 0.64 0.65
0.46 0.64 0.71 0.75 0.98 0.71 0.37 0.28 0.50 0.64 0.38 0.32 0.33 0.36 0.37 0.36 0.29 0.25 0.25 0.24 0.21 0.22 0.23 0.27 0.30 0.31 0.34 0.40 0.44 0.46 0.49 0.55 0.60 0.62 0.62 0.63 0.64 0.65 0.68 0.67 0.65 0.61 0.59 0.59
0.49 0.61 0.63 0.67 0.75 0.62 0.47 0.49 0.49 0.40 0.36 0.31 0.32 0.33 0.32 0.33 0.32 0.26 0.23 0.22 0.21 0.23 0.24 0.29 0.34 0.37 0.41 0.42 0.45 0.48 0.47 0.48 0.51 0.55 0.57 0.55 0.53 0.53 0.55 0.56 0.57 0.56 0.56 0.56
0.45 0.38 0.47 0.56 0.57 0.48 0.44 0.38 0.34 0.32 0.33 0.30 0.28 0.28 0.29 0.32 0.31 0.28 0.25 0.23 0.20 0.21 0.23 0.26 0.30 0.32 0.34 0.36 0.37 0.39 0.37 0.37 0.39 0.42 0.46 0.48 0.46 0.45 0.46 0.46 0.49 0.51 0.52 0.52
0.49 0.42 0.45 0.51 0.46 0.37 0.36 0.35 0.33 0.31 0.27 0.24 0.22 0.22 0.25 0.26 0.26 0.27 0.28 0.26 0.24 0.23 0.23 0.24 0.26 0.29 0.31 0.31 0.31 0.32 0.32 0.32 0.35 0.36 0.37 0.39 0.42 0.44 0.46 0.47 0.49 0.53 0.53 0.58
0.40 0.43 0.51 0.57 0.44 0.43 0.44 0.36 0.31 0.29 0.28 0.25 0.23 0.22 0.21 0.22 0.24 0.22 0.24 0.24 0.24 0.26 0.25 0.25 0.25 0.28 0.32 0.32 0.29 0.29 0.30 0.31 0.35 0.37 0.37 0.39 0.42 0.43 0.44 0.45 0.49 0.55 0.57 0.61